Weather in Magwe

Myanmar     20°07′36″N   94°55′59″E
temp.,
°C
wind,
m/s
gust,
m/s
humid.,
%
clouds,
%
prec.,
mm/h
press.,
hPa
HPBL,
m
22 january, sat
sat2200:30+17w225819 0.0 101012
03:30+16wnw11645 0.0 100911
06:30+15w11710 0.0 101011
09:30+20nw12570 0.0 1013430
12:30+25wnw113969 0.0 10101144
15:30+27ssw11315 0.0 10071453
18:30+23ese223837 0.0 100813
21:30+21s12409 0.0 101013
23 january, sun
sun2300:30+19wnw114911 0.0 101011
03:30+17nw115779 0.0 100911
06:30+16wnw116187 0.0 101111
09:30+21w11475 0.0 1014404
12:30+26wnw11345 0.0 10111089
15:30+28nnw11280 0.0 10081543
18:30+24ese11340 0.0 100811
21:30+22w11380 0.0 101011
24 january, mon
mon2400:30+19nw22492 0.0 101021
03:30+17wnw11565 0.0 101012
06:30+16nw11605 0.0 101114
09:30+22nw114412 0.0 1014421
12:30+27nw11330 0.0 10111212
15:30+29wsw11280 0.0 10081649
18:30+25se11350 0.0 100811
21:30+23wsw11380 0.0 101013
25 january, tue
tue2500:30+20wnw11490 0.0 101011
03:30+19nw11530 0.0 101011
06:30+17wnw12583 0.0 101114
09:30+22nw33445 0.0 1014454
12:30+27wnw11335 0.0 10111139
15:30+29ssw12290 0.0 10081531
18:30+25e22360 0.0 100813
21:30+24w01400 0.0 101012
26 january, wed
wed2600:30+21wnw11490 0.0 101011
03:30+19nw11525 0.0 100911
06:30+18w11572 0.0 101111
09:30+23wnw11442 0.0 1012393
12:30+28w11331 0.0 10101068
15:30+30s12290 0.0 10061307
18:30+26e33361 0.0 100723
21:30+24wsw22420 0.0 100919